Change the Weather History Date:

Friday, September 21, 2012

  Actual Average Record
Temperature  
Mean Temperature 56 °F -  
Max Temperature 64 °F 70 °F 90 °F (1970)
Min Temperature 48 °F 50 °F 30 °F (1991)
Degree Days  
Heating Degree Days 10    
Growing Degree Days 6 (Base 50)    
Moisture  
Dew Point 49 °F    
Average Humidity 83    
Maximum Humidity 100    
Minimum Humidity 46    
Precipitation  
Precipitation 0.40 in - - ()
Sea Level Pressure  
Sea Level Pressure 29.88 in    
Wind  
Wind Speed 5 mph (South)    
Max Wind Speed 21 mph    
Max Gust Speed 26 mph    
Visibility 8 miles    
Events Rain    
Averages and records for this station are not official NWS values.
T = Trace of Precipitation, MM = Missing Value Source: NWS Daily Summary

Daily Weather History Graph

Daily Weather History Graph

Search for Another Location

Airport or City:

Trip Planner

Search our weather history database for the weather conditions in past years. The results will help you decide how hot, cold, wet, or windy it might be!

Date:

Astronomy

Sep. 21, 2012 Rise Set
Actual Time 7:32 AM EDT 7:43 PM EDT
Civil Twilight 7:04 AM EDT 8:11 PM EDT
Nautical Twilight 6:31 AM EDT 8:44 PM EDT
Astronomical Twilight 5:58 AM EDT 9:17 PM EDT
Moon 1:59 PM EDT (9/21) 11:37 PM EDT (9/21)
Length of Visible Light 13h 07m
Length of Day
12h 11m
Waxing Crescent, 37% of the Moon is Illuminated
Sep 21
Waxing Crescent
Sep 22
First Quarter
Sep 29
Full
Oct 8
Last Quarter
Oct 15
New

Hourly Weather History & Observations

Time (EDT) Temp. Dew Point Humidity Pressure Visibility Wind Dir Wind Speed Gust Speed Precip Events Conditions
12:53 AM 61.0 °F 41.0 °F 48% 29.91 in 10.0 mi WNW 5.8 mph - N/A   Clear
1:53 AM 60.1 °F 41.0 °F 49% 29.91 in 10.0 mi WNW 5.8 mph - N/A   Clear
2:53 AM 60.1 °F 39.9 °F 47% 29.92 in 10.0 mi West 8.1 mph - N/A   Clear
3:53 AM 60.1 °F 39.0 °F 46% 29.91 in 10.0 mi WNW 6.9 mph 17.3 mph N/A   Clear
4:53 AM 57.0 °F 39.9 °F 53% 29.91 in 10.0 mi West 6.9 mph - N/A   Clear
5:53 AM 48.9 °F 45.0 °F 86% 29.92 in 10.0 mi East 3.5 mph - N/A   Clear
6:53 AM 48.9 °F 46.0 °F 90% 29.91 in 10.0 mi Calm Calm - N/A   Clear
7:53 AM 48.9 °F 45.0 °F 86% 29.92 in 10.0 mi Calm Calm - N/A   Clear
8:53 AM 54.0 °F 46.9 °F 77% 29.92 in 10.0 mi South 4.6 mph - N/A   Partly Cloudy
9:53 AM 55.9 °F 46.9 °F 72% 29.92 in 10.0 mi South 6.9 mph - N/A   Mostly Cloudy
10:53 AM 59.0 °F 46.9 °F 64% 29.92 in 10.0 mi South 4.6 mph - N/A   Clear
11:53 AM 61.0 °F 44.1 °F 54% 29.91 in 10.0 mi SSW 10.4 mph 17.3 mph N/A   Mostly Cloudy
12:53 PM 63.0 °F 46.9 °F 56% 29.90 in 10.0 mi WSW 20.7 mph 26.5 mph N/A   Overcast
1:53 PM 62.1 °F 46.9 °F 58% 29.91 in 10.0 mi West 15.0 mph 23.0 mph N/A   Overcast
2:53 PM 59.0 °F 48.9 °F 69% 29.89 in 10.0 mi WNW 9.2 mph - 0.00 in   Overcast
3:53 PM 57.0 °F 53.1 °F 87% 29.88 in 4.0 mi Calm Calm - 0.02 in Rain Light Rain
4:46 PM 55.4 °F 55.4 °F 100% 29.85 in 4.0 mi SSE 4.6 mph - 0.08 in Rain Rain
4:53 PM 55.0 °F 55.0 °F 100% 29.86 in 3.0 mi SE 3.5 mph - 0.11 in Rain Rain
5:20 PM 55.4 °F 55.4 °F 100% 29.84 in 4.0 mi East 3.5 mph - 0.04 in Rain Light Rain
5:40 PM 55.4 °F 53.6 °F 94% 29.85 in 4.0 mi Calm Calm - 0.06 in Rain Light Rain
5:51 PM 55.4 °F 55.4 °F 100% 29.84 in 6.0 mi Calm Calm - 0.07 in Rain Light Rain
5:53 PM 55.0 °F 55.0 °F 100% 29.85 in 6.0 mi Calm Calm - 0.07 in Rain Light Rain
6:16 PM 53.6 °F 53.6 °F 100% 29.85 in 8.0 mi Calm Calm - 0.01 in Rain Light Rain
6:37 PM 53.6 °F 53.6 °F 100% 29.85 in 10.0 mi Calm Calm - 0.01 in   Overcast
6:50 PM 53.6 °F 53.6 °F 100% 29.85 in 10.0 mi Variable 3.5 mph - 0.01 in   Overcast
6:53 PM 54.0 °F 53.1 °F 97% 29.85 in 9.0 mi North 5.8 mph - 0.02 in Rain Light Rain
6:56 PM 53.6 °F 53.6 °F 100% 29.85 in 9.0 mi NE 4.6 mph - 0.00 in Rain Light Rain
7:33 PM 53.6 °F 53.6 °F 100% 29.86 in 3.0 mi Calm Calm - 0.06 in Rain Rain
7:53 PM 54.0 °F 54.0 °F 100% 29.86 in 3.0 mi East 4.6 mph - 0.11 in Rain Rain
8:53 PM 53.1 °F 53.1 °F 100% 29.85 in 9.0 mi Calm Calm - 0.04 in Rain Light Rain
9:53 PM 53.1 °F 53.1 °F 100% 29.83 in 10.0 mi East 3.5 mph - 0.02 in   Overcast
10:53 PM 52.0 °F 52.0 °F 100% 29.80 in 10.0 mi SE 5.8 mph - 0.01 in   Overcast
11:53 PM 51.1 °F 51.1 °F 100% 29.78 in 10.0 mi SSE 3.5 mph - N/A   Mostly Cloudy